Location: Sobotiste
(48.7170°N, 17.4000°E)
Time: 12:11:18
(UTC+02:00)

Envisat - Visible Passes

Search period start: 21 August 2017 00:00
Search period end: 31 August 2017 00:00
Orbit: 764 x 766 km, 98.2° (Epoch: 20 August)

Date Brightness Start Highest point End Pass type
(mag) Time Alt. Az. Time Alt. Az. Time Alt. Az.
21 Aug 4.4 21:16:54 10° SSW 21:21:37 38° W 21:26:22 10° NNW visible
22 Aug 3.2 20:39:41 10° S 20:44:46 78° WSW 20:49:53 10° NNW visible
22 Aug 5.8 22:23:07 10° WSW 22:24:39 11° W 22:26:10 10° WNW visible
23 Aug 5.1 21:43:25 10° SW 21:47:27 23° W 21:51:30 10° NW visible
24 Aug 4.0 21:05:35 10° S 21:10:28 47° W 21:15:23 10° NNW visible
25 Aug 3.0 20:28:36 10° SSE 20:33:40 86° ENE 20:38:48 10° NNW visible
25 Aug 5.6 22:10:43 10° WSW 22:13:23 14° W 22:16:04 10° NW visible
26 Aug 4.8 21:31:54 10° SSW 21:36:15 29° W 21:40:39 10° NW visible
27 Aug 3.6 20:54:20 10° S 20:59:19 58° W 21:04:22 10° NNW visible
28 Aug 3.0 20:17:33 10° SSE 20:22:36 71° ENE 20:27:40 10° N visible
28 Aug 5.5 21:58:47 10° SW 22:02:09 18° W 22:05:32 10° NW visible
29 Aug 4.5 21:20:27 10° SSW 21:25:04 35° W 21:29:44 10° NNW visible
30 Aug 3.3 20:43:08 10° S 20:48:12 72° WSW 20:53:19 10° NNW visible
30 Aug 6.0 22:27:41 10° W 22:28:09 10° W 22:28:37 10° WNW visible
